This is the latest recevied weather packets stored in our database for station/object K8RRT. If no packets are shown the sender has not sent any weather packets the latest 10 day(s).
| Time | Temp. | Humidity | Pressure | Rain* | Wind** | Luminosity | Snow |
|---|---|---|---|---|---|---|---|
| 1788544043 | 32.78° C | 67% | 1011.2 hPa | 0 mm | - | 147 W/m² | - |
| 1788543739 | 33.33° C | 66% | 1011.6 hPa | 0 mm | - | 111 W/m² | - |
| 1788543434 | 32.78° C | 65% | 1011.6 hPa | 0 mm | - | 137 W/m² | - |
| 1788543129 | 33.33° C | 65% | 1011.8 hPa | 0 mm | - | 60 W/m² | - |
| 1788542826 | 33.33° C | 64% | 1011.6 hPa | 0 mm | - | 93 W/m² | - |
| 1788542524 | 33.89° C | 64% | 1011.7 hPa | 0 mm | - | 539 W/m² | - |
| 1788542220 | 33.89° C | 64% | 1011.8 hPa | 0 mm | - | 691 W/m² | - |
| 1788541915 | 33.89° C | 63% | 1012 hPa | 0 mm | - | 718 W/m² | - |
| 1788541611 | 33.89° C | 63% | 1011.9 hPa | 0 mm | - | 712 W/m² | - |
| 1788541307 | 33.89° C | 63% | 1012 hPa | 0 mm | - | 693 W/m² | - |
| 1788541005 | 33.89° C | 63% | 1012.1 hPa | 0 mm | - | 702 W/m² | - |
| 1788540705 | 33.89° C | 68% | 1011.9 hPa | 0 mm | - | 687 W/m² | - |
| 1788540400 | 34.44° C | 64% | 1012.1 hPa | 0 mm | - | 703 W/m² | - |
| 1788540095 | 33.89° C | 65% | 1012.2 hPa | 0 mm | - | 663 W/m² | - |
| 1788539790 | 33.89° C | 68% | 1012.3 hPa | 0 mm | - | 654 W/m² | - |
| 1788539480 | 33.89° C | 70% | 1012.3 hPa | 0 mm | - | 704 W/m² | - |
| 1788539180 | 33.33° C | 71% | 1012.5 hPa | 0 mm | - | 702 W/m² | - |
| 1788538875 | 32.78° C | 73% | 1012.3 hPa | 0 mm | - | 717 W/m² | - |
| 1788538570 | 33.33° C | 71% | 1012.5 hPa | 0 mm | - | 675 W/m² | - |
| 1788538265 | 32.78° C | 70% | 1012.5 hPa | 0 mm | - | 630 W/m² | - |
| 1788537961 | 32.78° C | 71% | 1012.5 hPa | 0 mm | - | 697 W/m² | - |
| 1788537656 | 32.78° C | 74% | 1012.3 hPa | 0 mm | - | 762 W/m² | - |
| 1788537356 | 32.78° C | 72% | 1012.5 hPa | 0 mm | - | 727 W/m² | - |
| 1788537050 | 32.78° C | 72% | 1012.5 hPa | 0 mm | - | 734 W/m² | - |
| 1788536747 | 32.22° C | 72% | 1012.6 hPa | 0 mm | - | 771 W/m² | - |
* Rain latest hour (hover to see other rain measurements)
** Current wind speed in m/s (hover to see current wind gust speed)